DiskSat-3

operational
NORAD ID: 67221 Int'l Des: 2025-305 Owner: STP Country: US
LEOCIRCULAR

About DiskSat-3

Description loading...

Live Position

Loading 3D Globe...

Upcoming Passes

Altitude History

Altitude vs Time

uPlot chart will show altitude changes over time

Two-Line Element Set

1 67221U 25305C 25352.25800440 .00002734 00000-0 14323-3 0 9995
2 67221 45.0151 321.1654 0062594 307.7869 51.7353 15.16973586 10
Epoch: Dec 18, 2025 • Age: 39 hours

Current Status

Altitude 496.9 km
Velocity 7.63 km/s
Sub-Earth Point -44.92°S, 178.68°W
Launch Date Dec 18, 2025
Age 1 days
Type other

Technical Details

Classification Payload
Mass 3.00 kg
Dry Mass 3.00 kg
Total Mass 3.00 kg
Length 0.03 m
Diameter 1.00 m
Span 1.00 m
Shape Cyl
Manufacturer AERO
Bus Type DiskSat
Phase Status In Orbit
Owner/State STP/US

Large Constellations

Loading constellations...